Weather in Hastings

New Zealand     39°37′57″S   176°50′00″E
temp.,
°C
wind,
m/s
gust,
m/s
humid.,
%
clouds,
%
prec.,
mm/h
press.,
hPa
HPBL,
m
27 january, thu
thu2701:00+17nw11800 0.0 100129
04:00+15w12840 0.0 100233
07:00+14ssw287224 0.0 1007259
10:00+13ssw41082100 0.4 1012920
13:00+17ssw484923 0.4 10141489
16:00+17s584729 0.0 10161266
19:00+17s58485 0.0 10181327
22:00+13ssw410580 0.0 1022606
28 january, fri
fri2801:00+9w22750 0.0 102427
04:00+9wsw23771 0.0 102558
07:00+9sw25745 0.0 1027105
10:00+18s244481 0.0 10281459
13:00+22sse34325 0.0 10271907
16:00+22ese34340 0.0 10261886
19:00+17e33501 0.0 1028913
22:00+11nne01760 0.0 102910
29 january, sat
sat2901:00+10nnw018421 0.0 103010
04:00+9wsw00890 0.0 102911
07:00+10w118595 0.0 102913
10:00+20ene11468 0.0 1029602
13:00+25ne333143 0.0 10271541
16:00+24ne54360 0.0 1025884
19:00+19ne45550 0.0 1025628
22:00+13ene11895 0.0 102613
30 january, sun
sun3001:00+12sw11930 0.0 102613
04:00+12wsw11920 0.0 102412
07:00+13wsw11840 0.0 102313
10:00+24wnw01430 0.0 1023683
13:00+30e22260 0.0 10211861
16:00+28ene54363 0.0 10201185
19:00+23ene2251100 0.0 1021596
22:00+16sse008815 0.0 102311
31 january, mon
mon3101:00+14sw229330 0.0 102337
04:00+14ssw11972 0.0 102222
07:00+14ssw11951 0.0 102333
10:00+23ne11561 0.0 1023855
13:00+26ne43454 0.0 10221548
16:00+25ene54470 0.0 10201216
19:00+21ene45668 0.0 1021863
22:00+16ne1297100 0.0 102250